www.pogodaiklimat.ru
ПОГОДА в Энчёпинге
Время
(UTC), дата
13 7.11
14 7.11
15 7.11
16 7.11
17 7.11
18 7.11
19 7.11
20 7.11
21 7.11
22 7.11
23 7.11
00 8.11
01 8.11
02 8.11
03 8.11
05 8.11
06 8.11
07 8.11
08 8.11
09 8.11
10 8.11
11 8.11
12 8.11
13 8.11
14 8.11
15 8.11
16 8.11
17 8.11
18 8.11
19 8.11
20 8.11
21 8.11
22 8.11
23 8.11
00 9.11
01 9.11
02 9.11
03 9.11
04 9.11
05 9.11
06 9.11
07 9.11
08 9.11
09 9.11
10 9.11
11 9.11
12 9.11
13 9.11
14 9.11
15 9.11
16 9.11
17 9.11
18 9.11
19 9.11
21 9.11
22 9.11
23 9.11
00 10.11
01 10.11
02 10.11
03 10.11
04 10.11
05 10.11
06 10.11
07 10.11
08 10.11
09 10.11
10 10.11
11 10.11
12 10.11
13 10.11
14 10.11
15 10.11
16 10.11
17 10.11
18 10.11
20 10.11
21 10.11
22 10.11
23 10.11
00 11.11
01 11.11
02 11.11
03 11.11
04 11.11
05 11.11
06 11.11
07 11.11
08 11.11
09 11.11
10 11.11
11 11.11
12 11.11
13 11.11
14 11.11
15 11.11
16 11.11
17 11.11
18 11.11
19 11.11
20 11.11
21 11.11
22 11.11
23 11.11
00 12.11
01 12.11
02 12.11
03 12.11
04 12.11
05 12.11
06 12.11
07 12.11
08 12.11
09 12.11
10 12.11
11 12.11
12 12.11
13 12.11
14 12.11
15 12.11
16 12.11
17 12.11
18 12.11
19 12.11
20 12.11
21 12.11
22 12.11
23 12.11
00 13.11
01 13.11
02 13.11
03 13.11
04 13.11
05 13.11
06 13.11
07 13.11
08 13.11
09 13.11
10 13.11
11 13.11
12 13.11
13 13.11
14 13.11
15 13.11
16 13.11
17 13.11
18 13.11
19 13.11
21 13.11
00 14.11
01 14.11
02 14.11
03 14.11
06 14.11
09 14.11
10 14.11
11 14.11
Ветер
(напр.,м/с)
Видим. Явления Облачность Т
(С)
Тd
(С)
f
(%)
Тe
(С)
Тes
(С)
Комфортность P
(гПа)
Po
(гПа)
Тmin
(С)
Tmax
(С)
R
(мм)
R24
(мм)
S
(см)
С 1-2
{2}
35 км 10/10 330 м
[]
+0.6 -0.7 91 -1 -1 по сезону 1007.9 1004.9
штиль 0
{2}
40 км 10/10 270 м
[]
+0.8 -0.5 91 -0 -0 по сезону 1008.2 1005.2
С 2-3
{3}
27 км в посл. час дождь {ливн. осадки} 10/10 240 м
[]
+0.9 +0.1 94 -3 -3 прохладно 1008.2 1005.2
СВ 1-4
{4}
30 км слаб. ливневой дождь 10/10 270 м
[]
+1.1 +0.3 94 -1 -1 по сезону 1008.6 1005.6
СВ 2-3
{3}
22 км в посл. час морось {ливн. осадки, дождь} 10/10 270 м
[]
+1.1 +0.5 96 -3 -3 прохладно 1008.8 1005.8
С 1-2
{3}
23 км в посл. час осадки {ливн. осадки} 10/10 300 м
[]
+0.9 +0.5 97 -1 -1 по сезону 1009.1 1006.1 -7.1 +1.2
С 1-2
{2}
19 км слаб. ливневой дождь {морось, осадки} 10/10 240 м
[]
+0.9 +0.6 98 -1 -1 по сезону 1009.5 1006.5
С 1-2
{2}
26 км {ливн. осадки, морось} 10/10 210 м
[]
+0.8 +0.5 98 -1 -1 по сезону 1009.6 1006.6
С 1-2
{2}
12 км в посл. час осадки {ливн. осадки, морось} 10/10 540 м
[]
+0.8 +0.5 98 -1 -1 по сезону 1010.2 1007.2
С 1-2
{2}
7000 м слаб. ливневой дождь {морось} 10/10 450 м
[]
+0.9 +0.6 98 -1 -1 по сезону 1010.2 1007.2 0.1
С 1-2
{2}
13 км в посл. час морось {ливн. осадки} 10/10 150 м
[]
+0.8 +0.7 99 -1 -1 по сезону 1010.5 1007.4
С 1-4
{4}
5000 м дымка {ливн. осадки} 10/10 120 м
[]
+0.8 +0.7 99 -1 -1 по сезону 1010.7 1007.6 0.1
С 1-2
{2}
5000 м дымка 10/10 90 м
[]
+0.7 +0.6 99 -1 -1 по сезону 1011.0 1007.9
С 1-2
{2}
7000 м дымка 10/10 90 м
[]
+0.9 +0.8 99 -1 -1 по сезону 1011.2 1008.1
С 1-2
{2}
7000 м дымка 10/10 90 м
[]
+0.9 +0.7 99 -1 -1 по сезону 1011.2 1008.1
С 1-2
{2}
7000 м морось {дымка} 10/10 120 м
[]
+0.8 +0.7 99 -1 -1 по сезону 1011.7 1008.6 0.1
С 1-2
{3}
7000 м дымка {ливн. осадки} 10/10 90 м
[]
+0.5 +0.4 99 -2 -2 по сезону 1012.2 1009.1 +0.5 +1.0 0.2
штиль 0-2
{2}
6000 м слаб. ливневой дождь {морось} 10/10 120 м
[]
+0.6 +0.6 100 -1 -1 по сезону 1012.5 1009.4
С 2-2
{2}
8000 м дымка {ливн. осадки} 10/10 120 м
[]
+1.0 +0.9 99 -3 -3 прохладно 1012.6 1009.5
штиль 0-2
{2}
12 км {ливн. осадки, дымка} 10/10 120 м
[]
+1.3 +1.1 99 -0 -0 по сезону 1012.9 1009.8
СВ 2-3
{3}
17 км слаб. ливневой дождь 10/10 540 м
[]
+1.8 +1.6 99 -2 -2 по сезону 1012.8 1009.7 0.2
СВ 2-4
{4}
18 км слаб. ливневой дождь 10/10 270 м
[]
+2.0 +1.7 98 -2 -2 по сезону 1012.1 1009.1
СВ 3-5
{5}
16 км слаб. ливневой дождь 10/10 480 м
[]
+2.0 +1.7 98 -3 -3 прохладно 1011.7 1008.7 0.1
СВ 3-6
{6}
4000 м дождь {ливн. осадки, морось} 10/10 150 м
[]
+2.0 +1.7 98 -3 -3 прохладно 1011.3 1008.3 0.4
СВ 2-5
{5}
4800 м дождь {ливн. осадки, морось} 10/10 120 м
[]
+2.2 +2.1 99 -1 -1 по сезону 1010.7 1007.7 2
СВ 2-5
{6}
10 км морось {ливн. осадки, дождь} 10/10 120 м
[]
+2.4 +2.2 99 -1 -1 по сезону 1010.2 1007.2 0.1
СВ 2-5
{5}
3400 м ливневой дождь 10/10 90 м
[]
+2.5 +2.4 99 -1 -1 по сезону 1010.1 1007.1 1
С 1-3
{5}
24 км слаб. ливневой дождь 10/10 90 м
[]
+2.6 +2.4 99 +1 +1 по сезону 1009.9 1006.9 0.8
С 3-5
{5}
13 км в посл. час дождь {ливн. осадки, морось} 10/10 90 м
[]
+1.5 +1.3 99 -3 -3 прохладно 1010.2 1007.2 +0.4 +2.6 0.1
С 2-4
{5}
14 км {морось} 10/10 120 м
[]
+1.2 +1.1 99 -2 -2 по сезону 1010.7 1007.7
С 1-2
{4}
6000 м дымка 10/10 120 м
[]
+1.2 +1.1 99 -1 -1 по сезону 1011.4 1008.3
СВ 2-4
{4}
6000 м дымка 10/10 120 м
[]
+1.3 +1.2 99 -2 -2 по сезону 1011.8 1008.7
С 2-3
{4}
8000 м дымка 10/10 90 м
[]
+1.2 +1.1 99 -2 -2 по сезону 1011.9 1008.8
СВ 2-4
{4}
10 км {морось, дымка} 10/10 90 м
[]
+1.4 +1.3 99 -2 -2 по сезону 1012.1 1009.0
СВ 2-4
{5}
8000 м дымка 10/10 90 м
[]
+1.4 +1.4 100 -2 -2 по сезону 1011.9 1008.8
СВ 2-4
{4}
12 км 10/10 90 м
[]
+1.6 +1.6 100 -2 -2 по сезону 1012.0 1008.9
С 3-4
{4}
8000 м дымка 10/10 60 м
[]
+1.6 +1.6 100 -3 -3 прохладно 1011.4 1008.4
СВ 2-4
{5}
11 км 10/10 60 м
[]
+1.8 +1.8 100 -2 -2 по сезону 1011.2 1008.2
СВ 2-4
{5}
8000 м дымка 10/10 60 м
[]
+2.1 +2.1 100 -1 -1 по сезону 1011.1 1008.1
С 2-5
{5}
11 км 10/10 60 м
[]
+2.3 +2.3 100 -1 -1 по сезону 1010.9 1007.9
С 3-6
{6}
11 км 10/10 90 м
[]
+2.3 +2.3 100 -2 -2 по сезону 1010.8 1007.8 +1.2 +2.3
СВ 4-6
{6}
14 км 10/10 120 м
[]
+2.5 +2.4 99 -3 -3 прохладно 1010.6 1007.6
СВ 4-7
{7}
45 км 10/10 270 м
[]
+2.5 +2.1 97 -3 -3 прохладно 1010.8 1007.8
С 4-6
{6}
45 км 10/10 210 м
[]
+2.4 +2.0 97 -3 -3 прохладно 1010.7 1007.7
СВ 4-6
{8}
23 км морось {дымка} 10/10 180 м
[]
+2.3 +2.1 99 -3 -3 прохладно 1010.5 1007.5 0.1
С 4-6
{7}
18 км слаб. дождь {морось} 10/10 180 м
[]
+2.3 +2.0 98 -3 -3 прохладно 1009.9 1006.9 0.4
С 5-8
{8}
30 км слаб. дождь {морось} 10/10 180 м
[]
+2.2 +2.0 99 -4 -4 прохладно 1009.5 1006.5 0.3
С 4-6
{8}
11 км слаб. дождь 10/10 180 м
[]
+1.9 +1.6 98 -3 -3 прохладно 1009.2 1006.2 0.5
С 3-6
{6}
25 км слаб. дождь 10/10 180 м
[]
+1.5 +1.3 99 -3 -3 прохладно 1009.2 1006.2 0.3
С 3-6
{6}
16 км слаб. дождь 10/10 180 м
[]
+1.3 +1.0 98 -3 -3 прохладно 1009.2 1006.2 0.1
С 4-7
{7}
10 км слаб. дождь {морось} 10/10 210 м
[]
+1.5 +1.2 98 -4 -4 прохладно 1009.1 1006.1 0.2
С 3-5
{7}
9000 м слаб. дождь {морось} 10/10 210 м
[]
+1.3 +1.0 98 -3 -3 прохладно 1009.2 1006.2 0.7
С 4-5
{6}
15 км слаб. морось {дождь} 10/10 210 м
[]
+1.4 +1.1 98 -4 -4 прохладно 1009.2 1006.2 +1.2 +2.6 0.4
С 4-6
{7}
35 км слаб. морось {дождь} 10/10 210 м
[]
+1.4 +1.1 98 -4 -4 прохладно 1008.6 1005.6
С 5-9
{9}
45 км {дождь, морось} 10/10 210 м
[]
+1.8 +1.5 98 -4 -4 прохладно 1008.6 1005.6
С 5-7
{9}
45 км {дождь, морось} 10/10 180 м
[]
+1.7 +1.2 96 -4 -4 прохладно 1008.4 1005.4
С 5-8
{10}
50 км {дождь, морось} 10/10 240 м
[]
+1.7 +1.1 96 -4 -4 прохладно 1008.3 1005.3
С 5-8
{9}
50 км {дождь, морось} 10/10 240 м
[]
+1.5 +1.0 96 -4 -4 прохладно 1008.4 1005.4
С 4-7
{8}
50 км 10/10 240 м
[]
+1.1 +0.4 95 -4 -4 прохладно 1008.6 1005.6
С 4-6
{7}
50 км 10/10 270 м
[]
+0.2 -0.4 96 -5 -5 холодно 1008.5 1005.5
С 4-9
{9}
50 км 10/10 270 м
[]
-0.2 -0.9 95 -6 -6 холодно 1008.7 1005.6
С 4-8
{9}
50 км 10/10 300 м
[]
-0.8 -1.7 94 -7 -7 холодно 1008.7 1005.6
С 4-7
{9}
50 км 10/10 300 м
[]
-1.4 -2.2 94 -7 -7 холодно 1008.7 1005.6
С 4-8
{9}
45 км 10/10 360 м
[]
-1.5 -2.5 93 -7 -7 холодно 1009.1 1006.0 -1.5 +1.9
С 4-7
{8}
45 км 9/9 400 м
[]
-1.8 -2.9 92 -8 -8 очень
холодно
1009.4 1006.3
С 4-6
{7}
50 км 10/10 360 м
[]
-1.9 -3.0 92 -8 -8 очень
холодно
1010.0 1006.9
С 5-8
{8}
45 км 9/9 400 м
[]
-1.6 -3.0 90 -8 -8 очень
холодно
1010.5 1007.4
С 3-7
{8}
45 км 10/10 400 м
[]
-1.4 -2.8 90 -6 -6 холодно 1011.0 1007.9
С 4-7
{7}
4000 м слаб. снег 10/10 360 м
[]
-1.8 -2.9 92 -8 -8 очень
холодно
1011.4 1008.3
С 4-7
{7}
12 км слаб. снег 10/10 360 м
[]
-1.8 -3.1 91 -8 -8 очень
холодно
1011.9 1008.8 0.1
СЗ 4-6
{7}
45 км слаб. снег 10/10 420 м
[]
-1.7 -3.3 89 -8 -8 очень
холодно
1012.3 1009.2
СЗ 3-6
{7}
45 км {снег, морось} 10/10 420 м
[]
-1.7 -3.3 89 -7 -7 холодно 1012.9 1009.8
С 3-5
{7}
30 км {снег, морось} 10/10 450 м
[]
-1.8 -3.5 88 -7 -7 холодно 1013.2 1010.1
С 3-5
{6}
50 км в посл. час снег {ливн. осадки, морось} 10/10 450 м
[]
-2.0 -3.7 88 -7 -7 холодно 1013.5 1010.4
С 2-4
{5}
50 км {ливн. осадки, снег} 9/9 420 м
[]
-3.0 -4.3 91 -7 -7 холодно 1014.0 1010.9
СЗ 1-3
{4}
50 км {ливн. осадки, снег} 10/10 960 м
[]
-3.0 -4.1 92 -5 -5 холодно 1014.5 1011.4 -3.4 -1.3 0.1
СЗ 1-3
{4}
50 км 10/10 360 м
[]
-3.1 -4.2 92 -5 -5 холодно 1014.8 1011.7
С 1-2
{3}
50 км 10/10 840 м
[]
-3.0 -4.2 91 -5 -5 холодно 1014.6 1011.5
штиль 0-2
{3}
50 км 10/10 800 м
[]
-3.0 -4.1 92 -4 -4 прохладно 1014.8 1011.7
штиль 0
{1}
50 км 10/10 750 м
[]
-2.8 -3.9 92 -4 -4 прохладно 1014.8 1011.7
штиль 0-2
{2}
50 км 10/10 800 м
[]
-2.9 -3.8 93 -4 -4 прохладно 1014.3 1011.2
штиль 0-2
{2}
50 км 10/10 800 м
[]
-2.9 -3.8 93 -4 -4 прохладно 1014.3 1011.2
штиль 0 45 км 10/10 240 м
[]
-2.9 -3.7 94 -4 -4 прохладно 1014.1 1011.0
штиль 0 45 км 10/10 210 м
[]
-3.1 -3.8 95 -4 -4 прохладно 1014.0 1010.9
штиль 0 45 км 10/10 210 м
[]
-3.3 -3.8 96 -5 -5 холодно 1013.9 1010.8
штиль 0 45 км 10/10 900 м
[]
-3.1 -3.5 97 -4 -4 прохладно 1013.4 1010.3
штиль 0 40 км 10/10 800 м
[]
-3.4 -3.8 97 -5 -5 холодно 1012.8 1009.7 -3.5 -2.7
штиль 0 40 км 10/10 800 м
[]
-3.3 -3.7 97 -5 -5 холодно 1012.8 1009.7
штиль 0 30 км слаб. снег {осадки} 10/10 720 м
[]
-2.7 -3.1 97 -4 -4 прохладно 1012.4 1009.3
штиль 0 35 км {ливн. осадки, снег} 10/10 750 м
[]
-1.9 -2.4 96 -3 -3 прохладно 1012.4 1009.3
штиль 0 28 км слаб. ливневой снег 10/10 360 м
[]
-1.2 -1.8 96 -3 -3 прохладно 1012.0 1008.9
штиль 0-3
{4}
45 км {ливн. осадки, снег} 10/10 400 м
[]
-0.5 -1.4 94 -2 -2 по сезону 1011.9 1008.8
В 1-4
{4}
18 км осадки {ливн. осадки} 10/10 210 м
[]
-0.2 -1.2 93 -2 -2 по сезону 1011.2 1008.1
В 2-4
{4}
7000 м слаб. снег 10/10 450 м
[]
-0.2 -0.6 97 -4 -4 прохладно 1010.4 1007.3 0.1
В 2-4
{5}
28 км в посл. час снег 10/10 300 м
[]
+0.3 -0.2 96 -3 -3 прохладно 1010.2 1007.1 0.1
ЮВ 2-4
{4}
17 км {снег} 10/10 270 м
[]
+0.8 +0.4 97 -3 -3 прохладно 1009.9 1006.9
ЮВ 1-2
{4}
11 км осадки 10/10 240 м
[]
+1.8 +1.5 98 -0 -0 по сезону 1009.6 1006.6
Ю 1-3
{3}
45 км в посл. час зёрна {ливн. осадки} 10/10 330 м
[]
+2.7 +2.4 98 +1 +1 по сезону 1009.5 1006.5
Ю 2-4
{4}
35 км {ливн. осадки, снег} 10/10 240 м
[]
+3.5 +2.9 96 0 0 по сезону 1009.3 1006.3 -3.5 +3.5 0.2
ЮВ 1-3
{4}
22 км слаб. ливневой дождь {осадки} 10/10 240 м
[]
+3.5 +2.9 96 +2 +2 по сезону 1009.2 1006.2
Ю 2-4
{4}
6000 м ливневой дождь {морось} 10/10 240 м
[]
+4.0 +3.5 97 +1 +1 по сезону 1009.3 1006.3 0.3
Ю 1-3
{4}
16 км в посл. час дождь {ливн. осадки, морось} 10/10 800 м
[]
+4.1 +3.7 97 +2 +2 по сезону 1009.5 1006.5 0.1
Ю 1-2
{4}
20 км {ливн. осадки, морось} 10/10 1500 м
[]
+4.1 +3.7 97 +2 +2 по сезону 1009.9 1006.9
Ю 2-3
{3}
18 км {ливн. осадки, морось} 1/0
[]
+3.6 +3.2 97 0 0 по сезону 1010.0 1007.0
Ю 1-3
{4}
22 км {ливн. осадки, морось} 1/1 400 м
[]
+3.2 +2.7 97 +1 +1 по сезону 1010.2 1007.2 0.4
штиль 0-1
{3}
11 км ясно +1.8 +1.3 96 +1 +1 по сезону 1010.4 1007.4
штиль 0-1
{1}
5000 м дымка ясно -0.2 -0.5 98 -2 -2 по сезону 1010.3 1007.2
ЮВ 1-2
{2}
13 км 4/4 700 м
[]
+1.2 +1.1 99 -1 -1 по сезону 1009.8 1006.8
В 1-2
{2}
8000 м дымка 9/9 1020 м
[]
+0.7 +0.6 99 -1 -1 по сезону 1009.6 1006.6
штиль 0-2
{2}
10 км 10/10 750 м
[]
+1.6 +1.5 99 0 0 по сезону 1009.3 1006.3
ЮВ 2-3
{3}
18 км 10/10 660 м
[]
+3.2 +3.0 99 -0 -0 по сезону 1009.2 1006.2 -1.5 +4.3 0.4
ЮВ 2-3
{3}
15 км 8/8 630 м
[]
+3.6 +3.3 98 0 0 по сезону 1009.0 1006.0
ЮВ 2-3
{3}
30 км 5/5 1410 м
[]
+3.6 +2.7 94 +1 +1 по сезону 1008.8 1005.8
ЮВ 3-4
{5}
30 км 10/10 1500 м
[]
+4.3 +2.9 91 +1 +1 по сезону 1008.5 1005.5
ЮВ 3-4
{4}
30 км 10/10 1500 м
[]
+5.1 +3.2 88 +2 +2 по сезону 1008.1 1005.1
ЮВ 4-5
{5}
30 км 10/10 840 м
[]
+5.6 +3.4 86 +2 +2 по сезону 1007.4 1004.4
ЮВ 3-7
{8}
35 км 10/10 1500 м
[]
+5.8 +2.8 81 +3 +3 по сезону 1006.4 1003.4
ЮВ 4-6
{6}
45 км 10/10 800 м
[]
+5.8 +3.0 82 +2 +2 по сезону 1005.4 1002.4
ЮВ 4-6
{8}
20 км 10/10 600 м
[]
+5.4 +4.1 91 +1 +1 по сезону 1004.5 1001.5
ЮВ 3-4
{6}
8000 м дождь {морось} 10/10 210 м
[]
+5.0 +4.6 97 +1 +1 по сезону 1003.9 1000.9 1
Ю 3-7
{7}
12 км слаб. дождь {морось} 10/10 700 м
[]
+5.3 +4.5 95 +2 +2 по сезону 1003.7 1000.7 2
ЮВ 2-3
{7}
14 км слаб. дождь {морось} 10/10 600 м
[]
+4.9 +4.6 98 +2 +2 по сезону 1003.6 1000.6 0.5
Ю 3-5
{5}
11 км в посл. час дождь {ливн. осадки, морось} 10/10 360 м
[]
+5.3 +4.9 97 +2 +2 по сезону 1003.6 1000.6 +3.1 +6.0 4
Ю 3-6
{6}
11 км {дождь, морось} 10/10 360 м
[]
+5.4 +4.9 97 +2 +2 по сезону 1004.1 1001.1
Ю 2-4
{5}
11 км {дождь, морось} 5/5 1170 м
[]
+5.0 +4.5 97 +2 +2 по сезону 1004.7 1001.7
Ю 2-4
{4}
9000 м дымка {дождь} ясно +4.1 +3.8 98 +1 +1 по сезону 1004.9 1001.9
Ю 1-3
{4}
10 км {морось, дымка} 1/1 1320 м
[]
+3.7 +3.3 97 +2 +2 по сезону 1005.4 1002.4
Ю 2-4
{4}
14 км {морось, дымка} ясно +3.3 +2.9 97 0 0 по сезону 1005.5 1002.5
ЮВ 2-3
{4}
12 км {морось, дымка} ясно +2.5 +2.3 99 -1 -1 по сезону 1005.6 1002.6
Ю 2-2
{3}
11 км ясно +2.3 +2.0 98 -1 -1 по сезону 1005.4 1002.4
Ю 1-3
{3}
10 км ясно +2.0 +1.6 97 0 0 по сезону 1005.4 1002.4
штиль 0-1
{2}
2500 м дымка ясно +0.4 +0.2 99 -1 -1 по сезону 1005.2 1002.2
ЮВ 1-2
{2}
5000 м дымка 1/0
[]
+0.5 +0.5 100 -2 -2 по сезону 1004.6 1001.6
штиль 0
{2}
4900 м дымка ясно -0.3 -0.4 99 -2 -2 по сезону 1004.7 1001.7
штиль 0-1
{1}
5000 м дымка ясно -0.6 -0.6 100 -2 -2 по сезону 1004.4 1001.4 -0.8 +5.5
штиль 0-1
{1}
5000 м дымка 10/0 2000 м
[]
-0.3 -0.3 100 -2 -2 по сезону 1004.6 1001.6
ЮВ 1-2
{2}
7000 м дымка 10/10 1500 м
[]
+2.0 +2.0 100 0 0 по сезону 1004.6 1001.6
штиль 0
{1}
3800 м в посл. час морось {ливн. осадки, дымка} ?/? +1.1 +1.1 100 -0 -0 по сезону 1004.6 1001.6
штиль 0
{1}
3900 м в посл. час осадки {ливн. осадки, дымка} 8/8 1300 м
[]
+2.4 +2.4 100 +1 +1 по сезону 1004.0 1001.0
ЮВ 1-2
{2}
8000 м слаб. ливневой дождь 10/10 720 м
[]
+3.5 +3.5 100 +2 +2 по сезону 1003.8 1000.8
штиль 0
{2}
8000 м дымка {ливн. осадки, осадки} 10/10 700 м
[]
+3.9 +3.9 100 +3 +3 по сезону 1003.4 1000.4
штиль 0-1
{1}
5000 м дымка 10/10 660 м
[]
+4.0 +3.9 99 +3 +3 по сезону 1002.8 999.8
штиль 0
{1}
5000 м дымка 10/10 90 м
[]
+4.0 +3.9 99 +3 +3 по сезону 1002.9 999.9
штиль 0-2
{2}
5000 м дымка 10/10 90 м
[]
+3.9 +3.7 99 +3 +3 по сезону 1003.1 1000.1
штиль 0-1
{2}
1800 м дымка 9/9 90 м
[]
+3.4 +3.3 99 +2 +2 по сезону 1003.1 1000.1
штиль 0
{1}
300 м туман {дымка} 10/10 60 м
[]
+3.0 +3.0 100 +2 +2 по сезону 1003.4 1000.4
штиль 0-1
{1}
2200 м в посл. час туман {дымка} 10/10 60 м
[]
+3.6 +3.6 100 +2 +2 по сезону 1003.8 1000.8 -0.9 +4.2
штиль 0
{1}
700 м туман 10/10 60 м
[]
+3.2 +3.2 100 +2 +2 по сезону 1003.5 1000.5
штиль 0 400 м туман 10/10 60 м
[]
+3.1 +3.1 100 +2 +2 по сезону 1004.2 1001.2
штиль 0 200 м туман ?/? +2.8 +2.8 100 +1 +1 по сезону 1004.8 1001.8
штиль 0
{1}
200 м туман 10/10 60 м
[]
+2.8 +2.8 100 +1 +1 по сезону 1004.8 1001.8
С 1-2
{2}
800 м туман 10/10 60 м
[]
+2.8 +2.8 100 +1 +1 по сезону 1004.5 1001.5
штиль 0-2
{2}
1000 м в посл. час туман 10/10 60 м
[]
+2.8 +2.8 100 +1 +1 по сезону 1004.7 1001.7
штиль 0-1
{2}
5000 м дымка {туман} 10/10 90 м
[]
+2.6 +2.6 100 +1 +1 по сезону 1005.4 1002.4 +2.5 +3.7
СЗ 1-3
{3}
5000 м слаб. дождь 10/10 120 м
[]
+2.4 +2.4 100 0 0 по сезону 1007.0 1004.0 0.2
штиль 0-2
{3}
7000 м слаб. ливневой дождь 10/10 150 м
[]
+2.3 +2.3 100 +1 +1 по сезону 1008.0 1005.0 0.1
СЗ 1-2
{2}
5000 м слаб. дождь 10/10 120 м
[]
+2.2 +2.2 100 0 0 по сезону 1009.0 1006.0 0.4
Местоположение метеостанции Энчёпинг (Швеция): широта 60.60 долгота 16.95 высота над уровнем моря 79 м.
В архиве по умолчанию представлена погода в Энчёпинге за последнюю неделю. Архивные данные за месяц целиком и за предыдущие месяцы, начиная с января 2011 года, Вы можете получить, выбрав интересующий диапазон дат из раскрывающегося списка и нажав кнопку "Найти!".
*Определитесь, кто Вы:
Внимание! Время в таблицах - всемирное. Для получения местного времени необходимо прибавить поправку, которая равна 1 ч.
Смотрите также архив погоды в соседних городах и на ближайших метеорологических станциях:
Партнеры нашего сайта:      
Пояснения к столбцам:
  • Ветер - указаны скорость ветра в м/с - средняя за 10 мин, порывы в срок и между сроками (в фигурных скобках) и направление, откуда дует ветер: С - северный,
  • СВ - северо-восточный, В - восточный, ЮВ - юго-восточный, Ю - южный, ЮЗ - юго-западный, З - западный, СЗ - северо-западный.
  • Видимость - горизонтальная дальность видимости в метрах или километрах. При видимости от 1 до 10 км при отсутствии осадков обычно наблюдается дымка, при ухудшении видимости до 1 км и менее - туман. В сухую погоду видимость может ухудшаться дымом, пылью или мглою.
  • Явления - указаны атмосферные явления, наблюдавшиеся в срок или в последний час перед сроком; фигурными скобками обозначены явления, наблюдавшиеся между сроками (за 1-3 часа до срока); квадратными скобками обозначены град или гололедные отложения с указанием их диаметра в мм.
  • Облачность - указаны через наклонную черту общая и нижняя облачность в баллах и высота нижней границы облаков в метрах; квадратными скобками обозначены формы облаков: Ci - перистые, Cs - перисто-слоистые, Cc - перисто-кучевые, Ac - высококучевые, As - высокослоистые, Sc - слоисто-кучевые, Ns - слоисто-дождевые, Cu - кучевые, Cb - кучево-дождевые. Подробнее классификацию облаков см. в Атласе облаков (PDF).
  • T - Температура воздуха - температура, измеренная на высоте 2 м над землей.
  • Td - Температура точки росы - температура, при понижении до которой содержащийся в воздухе водяной пар достигнет насыщения.
  • f - Относительная влажность воздуха - влажноcть воздуха, измеренная на высоте 2 м над землей.
  • Te - Эффективная температура - температура, которую ощущает одетый по сезону человек в тени. Характеристика душности погоды. При расчете учитывается влияние влажности воздуха и скорости ветра на теплоощущения человека.
  • Tes - Эффективная температура на солнце - температура, которую ощущает человек, с поправкой на солнечный нагрев. Характеристика знойности погоды. Зависит от высоты солнца над горизонтом, облачности и скорости ветра. Ночью, в пасмурную погоду, а также при ветре 12 м/с и более поправка равна нулю.
  • P - Атмосферное давление - приведенное к уровню моря атмосферное давление.
  • Po - Атмосферное давление - измеренное на уровне метеостанции атмосферное давление.
  • Tmin - Минимальная температура - минимум температуры воздуха на высоте 2 м над землей.
  • Tmax - Максимальная температура - максимум температуры воздуха на высоте 2 м над землей.
  • R - Количество осадков - Количество выпавших осадков за период времени, мм. При наведении курсора мыши на число - период времени, за который выпало указанное количество осадков.
  • R24 - Количество осадков - Количество выпавших осадков за 24 часа, мм.
  • S - Снежный покров - Высота снежного покрова, см. При наведении курсора мыши на число - состояние снежного покрова и степень покрытия местности в баллах.